Regional Weather Roundup
Issued by NWS Upton, NY

Current Version | Previous Version | Text Only | Print | Product List | Glossary Off
Versions: 1 2 3 4 5 6 7 8 9 10 11 12 13 14 15 16 17 18 19 20 21 22 23 24 25 26 27 28
000 ASUS41 KOKX 251204 RWROKX REGIONAL WEATHER ROUNDUP NATIONAL WEATHER SERVICE NEW YORK NY 800 AM EDT WED MAY 25 2016 NOTE: "FAIR" INDICATES FEW OR NO CLOUDS BELOW 12,000 FEET WITH NO SIGNIFICANT WEATHER AND/OR OBSTRUCTIONS TO VISIBILITY. NYZ071-072-176-178-NJZ106-104-251300- NEW YORK CITY METRO AREA CITY SKY/WX TMP DP RH WIND PRES REMARKS CENTRAL PARK SUNNY 66 49 54 W5 30.09R LAGUARDIA APRT MOSUNNY 70 53 54 W6 30.06R KENNEDY INTL MOSUNNY 67 55 65 SW7 30.07R NEWARK/LIBERTY MOSUNNY 66 54 65 SW5 30.07R BRNX BOT. GARD N/A 70 50 49 CALM 30.08S TETERBORO SUNNY 64 53 67 CALM 30.05R $$ NYZ177-179-078>081-251300- LONG ISLAND NEW YORK CITY SKY/WX TMP DP RH WIND PRES REMARKS FARMINGDALE SUNNY 66 56 70 CALM 30.06R ISLIP MOSUNNY 63 57 81 SW6 30.05R SHIRLEY SUNNY 64 58 80 SW6 30.06R RIVERHEAD N/A N/A N/A N/A CALM 30.04S WESTHAMPTON SUNNY 56 56 100 SW6 30.06S EAST HAMPTON FAIR 60 57 92 W5 30.03S MONTAUK POINT N/A 57 57 100 VRB3 30.05R $$ NYZ052-065-067-251300- HUDSON VALLEY CITY SKY/WX TMP DP RH WIND PRES REMARKS WHITE PLAINS SUNNY 64 52 64 NW7 30.05R NEWBURGH SUNNY 61 52 72 W8 30.07R MONTGOMERY SUNNY 59 53 80 SW10 30.06R POUGHKEEPSIE SUNNY 63 52 67 VRB3 30.05R ALBANY MOSUNNY 59 54 83 S8 30.04R $$ NJZ001-105-106-008-010-013-015-019>022-104-251300- NEW JERSEY CITY SKY/WX TMP DP RH WIND PRES REMARKS NEWARK/LIBERTY MOSUNNY 66 54 65 SW5 30.07R TETERBORO SUNNY 64 53 67 CALM 30.05R CALDWELL SUNNY 64 51 62 SW3 30.08R MORRISTOWN MOSUNNY 57 55 94 CALM 30.08R SOMERVILLE SUNNY 58 55 90 CALM 30.07R SUSSEX SUNNY 56 52 86 SW3 30.09R ANDOVER N/A 58 55 90 CALM 30.10R TRENTON SUNNY 65 53 65 NW6 30.09R MILLVILLE SUNNY 67 54 63 W7 30.11R ATLANTIC CITY SUNNY 65 55 70 W5 30.10R WRIGHTSTOWN NOT AVBL TOMS RIVER SUNNY 64 54 68 W5 30.10R BELMAR SUNNY 63 54 72 W6 30.09R $$ PAZ047>061-062-071-251300- EASTERN PENNSYLVANIA CITY SKY/WX TMP DP RH WIND PRES REMARKS PHILADELPHIA MOSUNNY 66 51 58 W5 30.11R ALLENTOWN SUNNY 60 54 80 SW3 30.11R SCRANTON SUNNY 58 45 62 CALM 30.13R $$ CTZ002-004>006-009-010-012-RIZ004-006-007-MAZ004-011-015-251300- SOUTHERN NEW ENGLAND IN CT CITY SKY/WX TMP DP RH WIND PRES REMARKS BRADLEY INTL MOSUNNY 57 55 93 S5 30.01S HARTFORD SUNNY 63 57 81 S5 30.02S DANBURY SUNNY 60 54 80 SW5 30.06R WTRBRY/OXFORD SUNNY 57 54 88 NW3 30.07R BRIDGEPORT SUNNY 62 56 80 SW7 30.04R MERIDEN MOSUNNY 58 56 93 SE3 30.03S NEW HAVEN SUNNY 57 57 100 CALM 30.04R CHESTER FAIR 61 57 88 VRB5 30.03S GROTON CLOUDY 57 57 100 SW3 30.02S FOG WILLIMANTIC FOG 54 52 93 CALM 30.03R VSB 3/4 IN RI CITY SKY/WX TMP DP RH WIND PRES REMARKS PROVIDENCE MOSUNNY 59 56 89 VRB3 30.02S BLOCK ISLAND FOG 58 56 93 SW8 30.04R VSB 1/2 WESTERLY FOG 56 54 93 CALM 30.04R VSB 1/4 IN MA CITY SKY/WX TMP DP RH WIND PRES REMARKS BOSTON PTSUNNY 59 55 87 SW6 30.01R WORCESTER SUNNY 59 53 80 W8 30.01R WESTFIELD PTSUNNY 54 53 97 S3 30.01S PROVINCETOWN FOG 53 52 96 W7 30.04R VSB 1/2 NANTUCKET CLOUDY 57 53 86 NW10 30.03R $$ ANZ330-335-338-340-345-350-353-355-251300- COASTAL MARINE OBSERVATIONS STATION/POSITION TIME SKY/WX TEMP WIND PRES VSBY WAVE AIR SEA DIR/SP/G HT/PER (UTC) (F) (DEG/KT/KT) (MB) (MI) (FT/S) NY HARB ENTRANCE 1050 61 57 270/ 6/ 8 1017.5 3/ 8 20S FIRE ISLAND 1050 58 55 180/ 4/ 4 1017.4 3/ 8 GREAT SOUTH BAY 1100 63 63 220/ 4/ 4 N/A 23 SSW MONTAUK P 1150 56 54 230/ 10/ 10 1016.9 3/ 8 15 E BARNEGAT LI 1122 55 N/A 3/11 HUDSON CANYON 1050 57 53 1017.8 3/10 KINGS POINT 1100 63 57 1017.3 EXECUTION ROCKS NOT AVBL CENTRAL LI SOUND NOT AVBL EASTERN LI SOUND 1100 54 52 270/ 4/ 4 N/A ROBBINS REEF 1100 62 260/ 8/ 10 1017.1 $$ >>>>>>>>>>>>>>>>>>>>>>>>>>>> KEY <<<<<<<<<<<<<<<<<<<<<<<<<<< > < > SKY/WX - SKY CONDITION/PRESENT WEATHER < > TMP - TEMPERATURE IN FAHRENHEIT < > DP - DEWPOINT IN FAHRENHEIT < > RH - RELATIVE HUMIDITY IN PERCENT < > WIND - DIRECTION AND SPEED IN MPH < > PRES - MEAN SEA LEVEL PRESSURE IN INCHES OF HG < > WCI - WIND CHILL INDEX < > VSB - VISIBILITY IN MILES < > HX - HEAT INDEX < > TC - TEMPERATURE IN CELSIUS < > VRB - VARIABLE WIND DIRECTION < > < >>>>>>>>>>>>>>>>>>>>>>>>>>>> KEY <<<<<<<<<<<<<<<<<<<<<<<<<<<

USA.gov is the U.S. government's official web portal to all federal, state and local government web resources and services.